Location: Pl�tzky
(52.0521°N, 11.8020°E)
Time: 10:06:57
(UTC+00:00)

N. Korean satellite - Pass Details

Date: 30 January 2021
Orbit: 451 x 502 km, 97.2° (Epoch: 07 March)

Event Time Altitude Azimuth Distance (km) Brightness Sun altitude
Rises 05:35:21 0° 5° (N) 2,507 10.1 -12.4°
Reaches altitude 10° 05:37:35 10° 354° (N) 1,619 9.0 -12.1°
Maximum altitude 05:40:37 29° 293° (WNW) 867 7.3 -11.6°
Drops below altitude 10° 05:43:37 10° 231° (SW) 1,592 8.8 -11.2°
Sets 05:45:47 0° 220° (SW) 2,456 9.9 -10.8°
